Weather Roundup
Issued by NWS Chicago, IL

Home | Current Version | Previous Version | Text Only | Print | Product List | Glossary Off
Versions: 1 2 3 4 5 6 7 8 9 10 11 12 13 14 15 16 17 18 19 20 21 22 23 24 25 26 27 28 29 30 31 32 33 34 35 36 37 38 39 40 41 42 43 44 45 46 47 48 49 50

000
NZUS59 KLOT 160958
HRRLOT

CHICAGO AREA WEATHER ROUNDUP
NATIONAL WEATHER SERVICE CHICAGO/ROMEOVILLE IL
500 AM CDT TUE SEP 16 2014

NOTE: "FAIR" INDICATES FEW OR NO CLOUDS BELOW 12,000 FEET WITH NO
SIGNIFICANT WEATHER AND/OR OBSTRUCTIONS TO VISIBILITY.

* THESE STATIONS ARE NOT UNDER NWS QUALITY CONTROL. THEY ALSO MAY NOT
  REPORT WEATHER SUCH AS PRECIPITATION OR FOG.

ILZ005-006-012>014-019>023-161100-
NORTHEAST ILLINOIS

CITY           SKY/WX    TMP DP  RH WIND       PRES   REMARKS
OHARE          CLEAR     47  44  90 W3        30.19S
MIDWAY         CLEAR     49  46  90 NW5       30.19S
AURORA         CLEAR     40  38  93 CALM      30.20F FOG
WAUKEGAN       CLEAR     45  42  89 NW6       30.18R
DUPAGE AIRPORT CLEAR     43  40  89 CALM      30.19S
WHEELING       CLEAR     46  43  89 CALM      30.20S
NORTHERLY IS     N/A     52  45  77 NW5         N/A
$$

WIZ051-052-058>065-066-070>072-161100-
SOUTHEAST WISCONSIN

CITY           SKY/WX    TMP DP  RH WIND       PRES   REMARKS
MILWAUKEE      CLEAR     46  42  86 NW7       30.19S
KENOSHA*       CLEAR     46  43  89 NW6       30.19S
RACINE*        CLEAR     45  42  89 NW7       30.20S
$$

INZ001>003-010>013-019-020-161100-
NORTHWEST INDIANA

CITY           SKY/WX    TMP DP  RH WIND       PRES   REMARKS
GARY*          MOCLDY    52  48  87 W8        30.18S
MICHIGAN CITY* NOT AVBL
RENSSELAER*    NOT AVBL
VALPARAISO     CLOUDY    52  51  97 W3        30.18R
$$

LMZ740>746-161100-
SOUTHERN LAKE MICHIGAN

STATION/POSITION TIME  SKY/WX   TEMP WIND        PRES    VSBY
                                AIR  DIR/SP/G
                 (UTC)          (F)  (DEG/KT/KT) (MB)    (MI)
HARRISON CRIB    0900            52  290/ 10/ 12   N/A
BURNHAM HARBOR   0900            52  280/  4/  7   N/A
CALUMET HARBOR   0900            51  290/  3/  6 1020.7S
BURNS HARBOR     NOT AVBL
MICHIGAN CITY    0900            57   30/ 12/ 17   N/A
$$

ABBREVIATIONS USED IN REMARKS
   TC - TEMPERATURE IN CELSIUS
  WCI - WIND CHILL INDEX
   HX - HEAT INDEX
  VSB - VISIBILITY
$$



USA.gov is the U.S. government's official web portal to all federal, state and local government web resources and services.